CCA855 VHHH-VTBS

Flight info

Callsign CCA855
Flight time 2h 23m
Altitude 34000
Route PECAN V10 SIKOU/K0852S1040 A202 ASSAD/K0848F340 A202 VILAO/N0458F340 A202 RAMEI W42 PAKRI Y13 RUKSA EASTE1C
Aircraft A321/M-SDE3FGHIRWY/LB1

Departure

Time 2026-05-07 12:32
Airport Hong Kong International Airport (VHHH)

Arrival

Time 2026-05-07 14:56
Airport Suvarnabhumi Airport (VTBS)
Time Latitude Longitude Altitude Speed Heading
2026-05-07 11:50 22.31818 113.93261 36 ft 0 kts 70°
2026-05-07 12:13 22.31812 113.93244 35 ft 4 kts 69°
2026-05-07 12:14 22.31802 113.93217 32 ft 4 kts 65°
2026-05-07 12:14 22.31790 113.93191 34 ft 4 kts 58°
2026-05-07 12:14 22.31774 113.93168 33 ft 4 kts 37°
2026-05-07 12:14 22.31755 113.93160 32 ft 1 kts 341°
2026-05-07 12:15 22.31754 113.93160 32 ft 0 kts 341°
2026-05-07 12:19 22.31771 113.93154 34 ft 8 kts 341°
2026-05-07 12:19 22.31833 113.93131 35 ft 9 kts 340°
2026-05-07 12:20 22.31869 113.93091 35 ft 7 kts 288°
2026-05-07 12:20 22.31859 113.93030 34 ft 11 kts 253°
2026-05-07 12:20 22.31838 113.92958 35 ft 9 kts 249°
2026-05-07 12:20 22.31817 113.92896 35 ft 8 kts 250°
2026-05-07 12:21 22.31790 113.92813 35 ft 16 kts 251°
2026-05-07 12:21 22.31752 113.92696 35 ft 16 kts 251°
2026-05-07 12:21 22.31715 113.92580 35 ft 17 kts 250°
2026-05-07 12:21 22.31669 113.92447 35 ft 20 kts 252°
2026-05-07 12:22 22.31619 113.92294 35 ft 23 kts 251°
2026-05-07 12:22 22.31566 113.92120 35 ft 25 kts 251°
2026-05-07 12:22 22.31514 113.91963 35 ft 15 kts 250°
2026-05-07 12:22 22.31457 113.91884 35 ft 13 kts 195°
2026-05-07 12:23 22.31375 113.91913 35 ft 13 kts 159°
2026-05-07 12:23 22.31292 113.91944 35 ft 14 kts 161°
2026-05-07 12:23 22.31205 113.91976 35 ft 13 kts 161°
2026-05-07 12:23 22.31123 113.92007 35 ft 12 kts 160°
2026-05-07 12:24 22.31048 113.92036 35 ft 11 kts 160°
2026-05-07 12:24 22.30954 113.92072 35 ft 17 kts 160°
2026-05-07 12:24 22.30846 113.92112 35 ft 16 kts 161°
2026-05-07 12:24 22.30819 113.92122 35 ft 0 kts 161°
2026-05-07 12:25 22.30818 113.92123 35 ft 0 kts 161°
2026-05-07 12:25 22.30747 113.92149 35 ft 22 kts 161°
2026-05-07 12:25 22.30672 113.92151 35 ft 15 kts 208°
2026-05-07 12:26 22.30620 113.92025 33 ft 14 kts 251°
2026-05-07 12:26 22.30583 113.91909 35 ft 19 kts 251°
2026-05-07 12:26 22.30533 113.91755 33 ft 24 kts 250°
2026-05-07 12:26 22.30470 113.91565 35 ft 29 kts 250°
2026-05-07 12:27 22.30422 113.91420 35 ft 31 kts 250°
2026-05-07 12:27 22.30353 113.91201 35 ft 30 kts 251°
2026-05-07 12:27 22.30284 113.90991 35 ft 29 kts 250°
2026-05-07 12:27 22.30217 113.90791 35 ft 28 kts 250°
2026-05-07 12:28 22.30158 113.90598 35 ft 26 kts 252°
2026-05-07 12:28 22.30099 113.90415 35 ft 25 kts 249°
2026-05-07 12:28 22.30039 113.90242 35 ft 24 kts 251°
2026-05-07 12:28 22.29988 113.90076 35 ft 23 kts 251°
2026-05-07 12:29 22.29939 113.89918 35 ft 21 kts 251°
2026-05-07 12:29 22.29891 113.89772 36 ft 17 kts 247°
2026-05-07 12:29 22.29799 113.89746 35 ft 15 kts 161°
2026-05-07 12:29 22.29743 113.89767 35 ft 0 kts 160°
2026-05-07 12:30 22.29732 113.89771 35 ft 8 kts 160°
2026-05-07 12:31 22.29656 113.89834 35 ft 20 kts 122°
2026-05-07 12:31 22.29677 113.89965 35 ft 0 kts 71°
2026-05-07 12:31 22.29677 113.89966 35 ft 0 kts 71°
2026-05-07 12:31 22.29716 113.90087 35 ft 49 kts 71°
2026-05-07 12:32 22.29889 113.90670 36 ft 111 kts 71°
2026-05-07 12:32 22.30205 113.91631 38 ft 158 kts 70°
2026-05-07 12:32 22.30603 113.92806 440 ft 166 kts 72°
2026-05-07 12:32 22.30992 113.93961 1097 ft 161 kts 72°
2026-05-07 12:33 22.31787 113.96440 1668 ft 193 kts 73°
2026-05-07 12:33 22.32237 113.97873 1801 ft 210 kts 73°
2026-05-07 12:33 22.32724 113.99414 2034 ft 221 kts 73°
2026-05-07 12:34 22.33230 114.01003 2427 ft 226 kts 72°
2026-05-07 12:34 22.33725 114.02622 2901 ft 228 kts 79°
2026-05-07 12:34 22.33801 114.04322 3398 ft 228 kts 99°
2026-05-07 12:34 22.33317 114.05938 3874 ft 228 kts 119°
2026-05-07 12:35 22.32351 114.07262 4328 ft 229 kts 140°
2026-05-07 12:35 22.30990 114.08219 4576 ft 242 kts 157°
2026-05-07 12:35 22.29303 114.08694 4857 ft 252 kts 176°
2026-05-07 12:35 22.27534 114.08698 5182 ft 261 kts 182°
2026-05-07 12:36 22.25681 114.08674 5503 ft 275 kts 182°
2026-05-07 12:36 22.23730 114.08659 6089 ft 279 kts 181°
2026-05-07 12:36 22.21806 114.08647 6678 ft 281 kts 182°
2026-05-07 12:36 22.19842 114.08637 7238 ft 283 kts 181°
2026-05-07 12:37 22.17868 114.08846 7798 ft 286 kts 176°
2026-05-07 12:37 22.15888 114.08962 8363 ft 287 kts 181°
2026-05-07 12:37 22.13884 114.08939 8925 ft 289 kts 183°
2026-05-07 12:37 22.11870 114.08874 9487 ft 291 kts 184°
2026-05-07 12:38 22.09836 114.08811 10014 ft 293 kts 184°
2026-05-07 12:38 22.07749 114.08765 10204 ft 308 kts 183°
2026-05-07 12:38 22.05545 114.08738 10323 ft 324 kts 182°
2026-05-07 12:38 22.03236 114.08730 10450 ft 339 kts 182°
2026-05-07 12:39 22.00835 114.08731 10704 ft 349 kts 182°
2026-05-07 12:39 21.98394 114.08741 11115 ft 352 kts 181°
2026-05-07 12:39 21.95932 114.08753 11558 ft 355 kts 181°
2026-05-07 12:39 21.93449 114.08765 12010 ft 358 kts 182°
2026-05-07 12:40 21.90946 114.08773 12462 ft 361 kts 182°
2026-05-07 12:40 21.88420 114.08778 12886 ft 364 kts 182°
2026-05-07 12:40 21.85907 114.08783 13299 ft 367 kts 181°
2026-05-07 12:40 21.83345 114.08790 13735 ft 370 kts 182°
2026-05-07 12:41 21.80760 114.08795 14119 ft 372 kts 182°
2026-05-07 12:41 21.78163 114.08802 14505 ft 375 kts 182°
2026-05-07 12:41 21.75552 114.08811 14892 ft 377 kts 182°
2026-05-07 12:41 21.72922 114.08821 15266 ft 379 kts 182°
2026-05-07 12:42 21.70271 114.08831 15641 ft 381 kts 182°
2026-05-07 12:42 21.67613 114.08841 16004 ft 383 kts 182°
2026-05-07 12:42 21.64944 114.08785 16352 ft 384 kts 188°
2026-05-07 12:42 21.62322 114.08278 16697 ft 383 kts 196°
2026-05-07 12:43 21.59760 114.07604 17043 ft 385 kts 196°
2026-05-07 12:43 21.57149 114.06918 17377 ft 387 kts 196°
2026-05-07 12:43 21.54523 114.06231 17715 ft 389 kts 196°
2026-05-07 12:43 21.51882 114.05544 18053 ft 391 kts 196°
2026-05-07 12:44 21.49231 114.04859 18348 ft 393 kts 196°
2026-05-07 12:44 21.46563 114.04173 18615 ft 395 kts 196°
2026-05-07 12:44 21.43956 114.03260 18872 ft 394 kts 206°
2026-05-07 12:44 21.41559 114.01852 19121 ft 392 kts 216°
2026-05-07 12:45 21.39278 114.00228 19367 ft 394 kts 216°
2026-05-07 12:45 21.36985 113.98604 19605 ft 396 kts 216°
2026-05-07 12:45 21.34683 113.96976 19849 ft 397 kts 216°
2026-05-07 12:45 21.32371 113.95342 20081 ft 399 kts 216°
2026-05-07 12:46 21.30050 113.93701 20303 ft 400 kts 215°
2026-05-07 12:46 21.27721 113.92056 20513 ft 402 kts 216°
2026-05-07 12:46 21.25377 113.90403 20737 ft 404 kts 216°
2026-05-07 12:46 21.23023 113.88741 20963 ft 405 kts 216°
2026-05-07 12:47 21.20659 113.87072 21180 ft 407 kts 216°
2026-05-07 12:47 21.18289 113.85397 21402 ft 408 kts 216°
2026-05-07 12:47 21.15917 113.83720 21623 ft 410 kts 216°
2026-05-07 12:47 21.13533 113.82036 21842 ft 411 kts 216°
2026-05-07 12:48 21.11231 113.80225 22062 ft 410 kts 224°
2026-05-07 12:48 21.09305 113.78038 22277 ft 409 kts 234°
2026-05-07 12:48 21.07784 113.75482 22502 ft 408 kts 245°
2026-05-07 12:48 21.06719 113.72673 22719 ft 407 kts 252°
2026-05-07 12:49 21.05797 113.69800 22924 ft 409 kts 252°
2026-05-07 12:49 21.04870 113.66918 23162 ft 410 kts 252°
2026-05-07 12:49 21.03935 113.64026 23388 ft 412 kts 252°
2026-05-07 12:49 21.02992 113.61120 23593 ft 414 kts 252°
2026-05-07 12:50 21.02043 113.58206 23785 ft 415 kts 252°
2026-05-07 12:50 21.01091 113.55284 23985 ft 416 kts 252°
2026-05-07 12:50 21.00137 113.52352 24189 ft 417 kts 252°
2026-05-07 12:50 20.99183 113.49415 24387 ft 418 kts 252°
2026-05-07 12:51 20.98226 113.46464 24584 ft 420 kts 252°
2026-05-07 12:51 20.97267 113.43511 24784 ft 421 kts 252°
2026-05-07 12:51 20.96317 113.40587 24976 ft 422 kts 252°
2026-05-07 12:51 20.95351 113.37619 25162 ft 424 kts 252°
2026-05-07 12:52 20.94378 113.34629 25365 ft 425 kts 252°
2026-05-07 12:52 20.93402 113.31637 25549 ft 426 kts 252°
2026-05-07 12:52 20.92422 113.28638 25738 ft 427 kts 252°
2026-05-07 12:52 20.91440 113.25629 25932 ft 429 kts 252°
2026-05-07 12:53 20.90455 113.22616 26101 ft 430 kts 252°
2026-05-07 12:53 20.89466 113.19594 26284 ft 431 kts 252°
2026-05-07 12:53 20.88474 113.16561 26462 ft 432 kts 252°
2026-05-07 12:53 20.87482 113.13523 26638 ft 433 kts 252°
2026-05-07 12:54 20.86482 113.10467 26824 ft 434 kts 252°
2026-05-07 12:54 20.85483 113.07412 26987 ft 436 kts 252°
2026-05-07 12:54 20.84492 113.04383 27148 ft 437 kts 252°
2026-05-07 12:54 20.83486 113.01313 27334 ft 438 kts 251°
2026-05-07 12:55 20.82473 112.98236 27485 ft 440 kts 251°
2026-05-07 12:55 20.81452 112.95149 27647 ft 441 kts 251°
2026-05-07 12:55 20.80427 112.92053 27805 ft 442 kts 251°
2026-05-07 12:55 20.79399 112.88941 27984 ft 444 kts 251°
2026-05-07 12:56 20.78373 112.85827 28155 ft 445 kts 251°
2026-05-07 12:56 20.77345 112.82705 28324 ft 446 kts 251°
2026-05-07 12:56 20.76307 112.79562 28485 ft 447 kts 251°
2026-05-07 12:56 20.75282 112.76463 28649 ft 448 kts 251°
2026-05-07 12:57 20.74242 112.73317 28772 ft 450 kts 251°
2026-05-07 12:57 20.73200 112.70164 28925 ft 451 kts 251°
2026-05-07 12:57 20.72154 112.67000 29074 ft 452 kts 251°
2026-05-07 12:57 20.71106 112.63829 29213 ft 453 kts 251°
2026-05-07 12:58 20.70056 112.60653 29358 ft 454 kts 251°
2026-05-07 12:58 20.69001 112.57465 29491 ft 455 kts 251°
2026-05-07 12:58 20.67943 112.54277 29623 ft 456 kts 251°
2026-05-07 12:58 20.66880 112.51086 29760 ft 456 kts 251°
2026-05-07 12:59 20.65816 112.47896 29887 ft 457 kts 251°
2026-05-07 12:59 20.64755 112.44700 30017 ft 457 kts 251°
2026-05-07 12:59 20.63697 112.41503 30130 ft 457 kts 251°
2026-05-07 12:59 20.62636 112.38296 30248 ft 457 kts 251°
2026-05-07 13:00 20.61572 112.35096 30353 ft 458 kts 251°
2026-05-07 13:00 20.60505 112.31898 30465 ft 458 kts 251°
2026-05-07 13:00 20.59447 112.28740 30579 ft 458 kts 251°
2026-05-07 13:00 20.58371 112.25537 30693 ft 458 kts 251°
2026-05-07 13:01 20.57300 112.22329 30818 ft 458 kts 252°
2026-05-07 13:01 20.56550 112.19032 30929 ft 456 kts 263°
2026-05-07 13:01 20.56389 112.15660 31049 ft 455 kts 273°
2026-05-07 13:01 20.56797 112.12321 31171 ft 454 kts 283°
2026-05-07 13:02 20.57762 112.09118 31300 ft 454 kts 293°
2026-05-07 13:02 20.59118 112.06073 31425 ft 454 kts 295°
2026-05-07 13:02 20.60491 112.03042 31556 ft 454 kts 295°
2026-05-07 13:02 20.61864 112.00004 31701 ft 453 kts 295°
2026-05-07 13:03 20.63231 111.96972 31835 ft 453 kts 295°
2026-05-07 13:03 20.64593 111.93947 31977 ft 452 kts 295°
2026-05-07 13:03 20.65955 111.90920 32121 ft 452 kts 295°
2026-05-07 13:03 20.67304 111.87927 32254 ft 451 kts 295°
2026-05-07 13:04 20.68663 111.84912 32409 ft 451 kts 295°
2026-05-07 13:04 20.70023 111.81897 32558 ft 450 kts 295°
2026-05-07 13:04 20.71383 111.78876 32693 ft 450 kts 295°
2026-05-07 13:04 20.72738 111.75863 32835 ft 450 kts 296°
2026-05-07 13:05 20.74091 111.72851 32980 ft 449 kts 296°
2026-05-07 13:05 20.75443 111.69842 33122 ft 449 kts 296°
2026-05-07 13:05 20.76793 111.66841 33256 ft 448 kts 296°
2026-05-07 13:05 20.78142 111.63836 33391 ft 448 kts 296°
2026-05-07 13:06 20.79485 111.60833 33531 ft 448 kts 296°
2026-05-07 13:06 20.80829 111.57822 33666 ft 447 kts 296°
2026-05-07 13:06 20.82085 111.54784 33817 ft 447 kts 289°
2026-05-07 13:06 20.82840 111.51571 33915 ft 446 kts 278°
2026-05-07 13:07 20.82574 111.45019 33934 ft 444 kts 257°
2026-05-07 13:07 20.80564 111.38762 33931 ft 446 kts 252°
2026-05-07 13:08 20.78481 111.32563 33928 ft 446 kts 252°
2026-05-07 13:08 20.76388 111.26326 33928 ft 446 kts 252°
2026-05-07 13:09 20.74288 111.20084 33933 ft 446 kts 252°
2026-05-07 13:09 20.72189 111.13847 33931 ft 446 kts 252°
2026-05-07 13:10 20.70087 111.07624 33946 ft 444 kts 252°
2026-05-07 13:10 20.67988 111.01424 33948 ft 443 kts 252°
2026-05-07 13:11 20.65893 110.95235 33942 ft 443 kts 252°
2026-05-07 13:11 20.63810 110.89058 33940 ft 442 kts 252°
2026-05-07 13:12 20.61742 110.82879 33935 ft 442 kts 252°
2026-05-07 13:12 20.60022 110.77748 33940 ft 441 kts 252°
2026-05-07 13:13 20.57616 110.70602 33946 ft 439 kts 252°
2026-05-07 13:13 20.55551 110.64469 33943 ft 439 kts 252°
2026-05-07 13:14 20.53822 110.59339 33950 ft 438 kts 252°
2026-05-07 13:14 20.51751 110.53222 33926 ft 438 kts 252°
2026-05-07 13:15 20.48950 110.47484 33924 ft 444 kts 235°
2026-05-07 13:15 20.45052 110.42361 33920 ft 445 kts 233°
2026-05-07 13:16 20.41143 110.37249 33918 ft 445 kts 233°
2026-05-07 13:16 20.37233 110.32132 33919 ft 445 kts 233°
2026-05-07 13:17 20.33320 110.27014 33923 ft 445 kts 233°
2026-05-07 13:17 20.29426 110.21937 33922 ft 445 kts 233°
2026-05-07 13:18 20.25553 110.16793 33913 ft 445 kts 234°
2026-05-07 13:18 20.21710 110.11631 33915 ft 445 kts 234°
2026-05-07 13:19 20.17858 110.06475 33916 ft 445 kts 234°
2026-05-07 13:19 20.14000 110.01334 33919 ft 444 kts 234°
2026-05-07 13:20 20.10133 109.96194 33920 ft 444 kts 234°
2026-05-07 13:20 20.06274 109.91065 33917 ft 444 kts 234°
2026-05-07 13:21 20.02410 109.85927 33914 ft 444 kts 234°
2026-05-07 13:21 19.98576 109.80833 33911 ft 444 kts 234°
2026-05-07 13:22 19.94700 109.75706 33902 ft 444 kts 234°
2026-05-07 13:22 19.90835 109.70581 33904 ft 444 kts 234°
2026-05-07 13:23 19.86969 109.65455 33901 ft 444 kts 234°
2026-05-07 13:23 19.83098 109.60339 33904 ft 444 kts 234°
2026-05-07 13:24 19.79219 109.55225 33908 ft 444 kts 234°
2026-05-07 13:24 19.75340 109.50112 33907 ft 444 kts 234°
2026-05-07 13:25 19.71465 109.44998 33909 ft 444 kts 234°
2026-05-07 13:25 19.67618 109.39920 33899 ft 445 kts 233°
2026-05-07 13:26 19.63739 109.34807 33899 ft 445 kts 233°
2026-05-07 13:26 19.59853 109.29690 33902 ft 445 kts 233°
2026-05-07 13:27 19.55967 109.24582 33901 ft 445 kts 233°
2026-05-07 13:27 19.52074 109.19477 33906 ft 445 kts 233°
2026-05-07 13:28 19.48171 109.14374 33903 ft 445 kts 233°
2026-05-07 13:28 19.44239 109.09289 33904 ft 445 kts 233°
2026-05-07 13:29 19.40309 109.04216 33901 ft 446 kts 233°
2026-05-07 13:29 19.36376 108.99128 33900 ft 446 kts 233°
2026-05-07 13:30 19.32475 108.94078 33903 ft 446 kts 233°
2026-05-07 13:30 19.28519 108.88958 33907 ft 446 kts 233°
2026-05-07 13:31 19.24590 108.83873 33904 ft 446 kts 233°
2026-05-07 13:31 19.20650 108.78792 33904 ft 446 kts 233°
2026-05-07 13:32 19.16712 108.73716 33908 ft 446 kts 233°
2026-05-07 13:32 19.12797 108.68664 33903 ft 446 kts 233°
2026-05-07 13:33 19.08854 108.63589 33901 ft 447 kts 232°
2026-05-07 13:33 19.04903 108.58517 33903 ft 447 kts 232°
2026-05-07 13:34 18.98987 108.50897 33902 ft 447 kts 233°
2026-05-07 13:35 18.95038 108.45822 33899 ft 447 kts 232°
2026-05-07 13:35 18.91089 108.40756 33899 ft 447 kts 233°
2026-05-07 13:36 18.87136 108.35690 33907 ft 446 kts 233°
2026-05-07 13:36 18.83184 108.30630 33902 ft 447 kts 232°
2026-05-07 13:37 18.79230 108.25569 33901 ft 447 kts 232°
2026-05-07 13:37 18.75276 108.20506 33903 ft 447 kts 232°
2026-05-07 13:38 18.71320 108.15445 33909 ft 447 kts 232°
2026-05-07 13:38 18.67357 108.10389 33910 ft 447 kts 232°
2026-05-07 13:39 18.63392 108.05332 33902 ft 447 kts 232°
2026-05-07 13:39 18.59429 108.00279 33904 ft 447 kts 232°
2026-05-07 13:40 18.55456 107.95230 33902 ft 447 kts 232°
2026-05-07 13:40 18.51481 107.90177 33897 ft 448 kts 232°
2026-05-07 13:41 18.47537 107.85149 33892 ft 448 kts 232°
2026-05-07 13:41 18.43555 107.80086 33893 ft 448 kts 232°
2026-05-07 13:42 18.39570 107.75034 33894 ft 448 kts 232°
2026-05-07 13:42 18.35581 107.69980 33898 ft 448 kts 232°
2026-05-07 13:43 18.32026 107.64624 33895 ft 446 kts 240°
2026-05-07 13:43 18.28701 107.59106 33898 ft 446 kts 239°
2026-05-07 13:44 18.25361 107.53601 33893 ft 446 kts 239°
2026-05-07 13:44 18.22023 107.48089 33892 ft 447 kts 239°
2026-05-07 13:45 18.18692 107.42575 33898 ft 447 kts 239°
2026-05-07 13:45 18.15350 107.37069 33910 ft 446 kts 239°
2026-05-07 13:46 18.12015 107.31584 33912 ft 445 kts 239°
2026-05-07 13:46 18.08686 107.26100 33911 ft 444 kts 239°
2026-05-07 13:47 18.05364 107.20633 33915 ft 444 kts 239°
2026-05-07 13:47 18.02037 107.15174 33914 ft 443 kts 239°
2026-05-07 13:48 17.98709 107.09718 33910 ft 443 kts 239°
2026-05-07 13:48 17.95383 107.04265 33905 ft 443 kts 239°
2026-05-07 13:49 17.92054 106.98812 33895 ft 443 kts 239°
2026-05-07 13:49 17.88745 106.93399 33895 ft 443 kts 239°
2026-05-07 13:50 17.85423 106.87944 33897 ft 443 kts 239°
2026-05-07 13:50 17.82109 106.82489 33899 ft 443 kts 239°
2026-05-07 13:51 17.78796 106.77023 33900 ft 443 kts 239°
2026-05-07 13:51 17.75475 106.71564 33900 ft 443 kts 239°
2026-05-07 13:52 17.72150 106.66116 33890 ft 444 kts 239°
2026-05-07 13:52 17.68817 106.60650 33892 ft 445 kts 239°
2026-05-07 13:53 17.65475 106.55172 33887 ft 446 kts 239°
2026-05-07 13:53 17.62117 106.49697 33893 ft 447 kts 239°
2026-05-07 13:54 17.58748 106.44219 33903 ft 447 kts 239°
2026-05-07 13:54 17.55379 106.38735 33906 ft 448 kts 239°
2026-05-07 13:55 17.52006 106.33249 33924 ft 448 kts 239°
2026-05-07 13:55 17.48634 106.27760 33916 ft 448 kts 239°
2026-05-07 13:56 17.45260 106.22260 33927 ft 449 kts 239°
2026-05-07 13:56 17.41874 106.16775 33928 ft 449 kts 239°
2026-05-07 13:57 17.38505 106.11325 33926 ft 449 kts 239°
2026-05-07 13:57 17.35122 106.05829 33926 ft 449 kts 239°
2026-05-07 13:58 17.31781 106.00308 33931 ft 449 kts 240°
2026-05-07 13:58 17.29012 105.95713 33930 ft 449 kts 240°
2026-05-07 13:59 17.25677 105.90181 33921 ft 449 kts 240°
2026-05-07 13:59 17.22329 105.84656 33920 ft 449 kts 239°
2026-05-07 14:00 17.18973 105.79139 33918 ft 449 kts 239°
2026-05-07 14:00 17.15635 105.73658 33910 ft 450 kts 239°
2026-05-07 14:01 17.12281 105.68131 33910 ft 450 kts 239°
2026-05-07 14:01 17.08919 105.62609 33910 ft 449 kts 239°
2026-05-07 14:02 17.05559 105.57097 33910 ft 449 kts 239°
2026-05-07 14:02 17.02195 105.51585 33906 ft 450 kts 239°
2026-05-07 14:03 16.98853 105.46111 33899 ft 450 kts 239°
2026-05-07 14:03 16.95486 105.40600 33905 ft 450 kts 239°
2026-05-07 14:04 16.92124 105.35092 33901 ft 450 kts 239°
2026-05-07 14:04 16.88753 105.29589 33904 ft 450 kts 239°
2026-05-07 14:05 16.85378 105.24080 33890 ft 451 kts 239°
2026-05-07 14:05 16.82002 105.18564 33888 ft 451 kts 239°
2026-05-07 14:06 16.78646 105.13085 33892 ft 451 kts 238°
2026-05-07 14:06 16.75263 105.07574 33911 ft 451 kts 238°
2026-05-07 14:07 16.71871 105.02066 33913 ft 451 kts 238°
2026-05-07 14:07 16.68478 104.96562 33902 ft 451 kts 238°
2026-05-07 14:08 16.65088 104.91060 33899 ft 451 kts 238°
2026-05-07 14:08 16.61695 104.85553 33903 ft 451 kts 238°
2026-05-07 14:09 16.58322 104.80088 33904 ft 451 kts 238°
2026-05-07 14:09 16.54625 104.74808 33896 ft 452 kts 229°
2026-05-07 14:10 16.50426 104.69920 33894 ft 453 kts 229°
2026-05-07 14:10 16.46215 104.65024 33891 ft 454 kts 229°
2026-05-07 14:11 16.42024 104.60154 33888 ft 454 kts 229°
2026-05-07 14:11 16.37801 104.55242 33887 ft 455 kts 229°
2026-05-07 14:12 16.33580 104.50337 33892 ft 455 kts 229°
2026-05-07 14:12 16.29354 104.45433 33882 ft 455 kts 229°
2026-05-07 14:13 16.25122 104.40534 33889 ft 455 kts 229°
2026-05-07 14:13 16.20862 104.35663 33878 ft 455 kts 229°
2026-05-07 14:14 16.16585 104.30800 33859 ft 456 kts 229°
2026-05-07 14:14 16.12339 104.25956 33858 ft 457 kts 229°
2026-05-07 14:15 16.08056 104.21062 33852 ft 457 kts 229°
2026-05-07 14:15 16.03774 104.16162 33848 ft 458 kts 229°
2026-05-07 14:16 15.99525 104.11209 33841 ft 459 kts 230°
2026-05-07 14:16 15.95294 104.06238 33835 ft 459 kts 230°
2026-05-07 14:17 15.91048 104.01277 33839 ft 459 kts 230°
2026-05-07 14:17 15.86814 103.96355 33870 ft 459 kts 229°
2026-05-07 14:18 15.82577 103.91419 33874 ft 457 kts 229°
2026-05-07 14:18 15.78352 103.86511 33874 ft 455 kts 229°
2026-05-07 14:19 15.74130 103.81615 33872 ft 455 kts 229°
2026-05-07 14:19 15.69922 103.76720 33869 ft 454 kts 229°
2026-05-07 14:20 15.65716 103.71825 33865 ft 454 kts 229°
2026-05-07 14:20 15.61530 103.66981 33863 ft 454 kts 229°
2026-05-07 14:21 15.57308 103.62099 33865 ft 454 kts 229°
2026-05-07 14:21 15.53090 103.57221 33845 ft 454 kts 229°
2026-05-07 14:22 15.48894 103.52364 33843 ft 454 kts 229°
2026-05-07 14:22 15.44678 103.47478 33855 ft 455 kts 229°
2026-05-07 14:23 15.40447 103.42586 33854 ft 455 kts 229°
2026-05-07 14:23 15.36212 103.37702 33851 ft 456 kts 229°
2026-05-07 14:24 15.31977 103.32815 33855 ft 456 kts 229°
2026-05-07 14:24 15.27739 103.27928 33852 ft 456 kts 229°
2026-05-07 14:25 15.23494 103.23041 33864 ft 456 kts 229°
2026-05-07 14:25 15.19251 103.18155 33865 ft 456 kts 229°
2026-05-07 14:26 15.15041 103.13301 33867 ft 456 kts 229°
2026-05-07 14:26 15.10800 103.08420 33872 ft 456 kts 229°
2026-05-07 14:27 15.06551 103.03545 33869 ft 456 kts 229°
2026-05-07 14:27 15.01664 102.99388 33866 ft 457 kts 211°
2026-05-07 14:28 14.96176 102.96030 33861 ft 458 kts 211°
2026-05-07 14:28 14.90765 102.92571 33854 ft 457 kts 219°
2026-05-07 14:28 14.88440 102.90353 33851 ft 454 kts 230°
2026-05-07 14:29 14.86545 102.87749 33859 ft 452 kts 240°
2026-05-07 14:29 14.84143 102.81787 33861 ft 450 kts 254°
2026-05-07 14:30 14.82258 102.75614 33855 ft 451 kts 253°
2026-05-07 14:30 14.80346 102.69434 33854 ft 452 kts 253°
2026-05-07 14:31 14.78443 102.63284 33859 ft 452 kts 253°
2026-05-07 14:31 14.76537 102.57083 33867 ft 453 kts 254°
2026-05-07 14:32 14.74633 102.50880 33867 ft 453 kts 254°
2026-05-07 14:32 14.72725 102.44674 33866 ft 453 kts 253°
2026-05-07 14:32 14.71768 102.41570 33696 ft 454 kts 253°
2026-05-07 14:33 14.70807 102.38458 33450 ft 456 kts 254°
2026-05-07 14:33 14.69843 102.35333 33197 ft 458 kts 254°
2026-05-07 14:33 14.68872 102.32193 32947 ft 459 kts 253°
2026-05-07 14:33 14.67899 102.29043 32698 ft 460 kts 253°
2026-05-07 14:34 14.66927 102.25894 32441 ft 459 kts 253°
2026-05-07 14:34 14.65961 102.22765 31917 ft 456 kts 253°
2026-05-07 14:34 14.64998 102.19649 31345 ft 454 kts 253°
2026-05-07 14:34 14.64038 102.16558 30784 ft 451 kts 252°
2026-05-07 14:35 14.63085 102.13493 30236 ft 449 kts 252°
2026-05-07 14:35 14.62147 102.10472 29651 ft 446 kts 252°
2026-05-07 14:35 14.61205 102.07433 29097 ft 442 kts 252°
2026-05-07 14:35 14.60271 102.04428 28565 ft 437 kts 252°
2026-05-07 14:36 14.59343 102.01447 28031 ft 433 kts 252°
2026-05-07 14:36 14.58428 101.98501 27518 ft 429 kts 252°
2026-05-07 14:36 14.57522 101.95584 27004 ft 424 kts 252°
2026-05-07 14:36 14.56611 101.92705 26508 ft 419 kts 249°
2026-05-07 14:37 14.55397 101.89996 26024 ft 413 kts 242°
2026-05-07 14:37 14.52759 101.84805 25097 ft 404 kts 242°
2026-05-07 14:37 14.51461 101.82254 24658 ft 399 kts 242°
2026-05-07 14:38 14.50176 101.79726 24208 ft 396 kts 242°
2026-05-07 14:38 14.48902 101.77220 23765 ft 393 kts 242°
2026-05-07 14:38 14.47636 101.74727 23293 ft 390 kts 241°
2026-05-07 14:38 14.46381 101.72260 22820 ft 386 kts 241°
2026-05-07 14:39 14.45139 101.69823 22369 ft 381 kts 241°
2026-05-07 14:39 14.43915 101.67414 21926 ft 377 kts 241°
2026-05-07 14:39 14.42703 101.65025 21480 ft 374 kts 241°
2026-05-07 14:39 14.41501 101.62661 21035 ft 371 kts 241°
2026-05-07 14:40 14.40323 101.60347 20594 ft 368 kts 241°
2026-05-07 14:40 14.39135 101.58016 20147 ft 366 kts 241°
2026-05-07 14:40 14.37955 101.55704 19704 ft 363 kts 241°
2026-05-07 14:40 14.36778 101.53395 19262 ft 361 kts 241°
2026-05-07 14:41 14.35612 101.51106 18821 ft 360 kts 241°
2026-05-07 14:41 14.34452 101.48827 18388 ft 358 kts 241°
2026-05-07 14:41 14.33299 101.46561 17909 ft 356 kts 241°
2026-05-07 14:41 14.32152 101.44308 17464 ft 353 kts 241°
2026-05-07 14:42 14.31015 101.42074 17045 ft 350 kts 241°
2026-05-07 14:42 14.29892 101.39868 16639 ft 346 kts 241°
2026-05-07 14:42 14.28776 101.37682 16216 ft 343 kts 241°
2026-05-07 14:42 14.27669 101.35517 15811 ft 340 kts 241°
2026-05-07 14:43 14.26570 101.33369 15408 ft 337 kts 241°
2026-05-07 14:43 14.25495 101.31267 15015 ft 334 kts 241°
2026-05-07 14:43 14.24414 101.29153 14601 ft 332 kts 241°
2026-05-07 14:43 14.23346 101.27066 14207 ft 330 kts 241°
2026-05-07 14:44 14.22278 101.24978 13810 ft 328 kts 241°
2026-05-07 14:44 14.21217 101.22904 13382 ft 327 kts 241°
2026-05-07 14:44 14.20160 101.20834 12974 ft 324 kts 241°
2026-05-07 14:44 14.19116 101.18793 12579 ft 321 kts 241°
2026-05-07 14:45 14.18079 101.16768 12170 ft 318 kts 241°
2026-05-07 14:45 14.17050 101.14757 11775 ft 315 kts 241°
2026-05-07 14:45 14.16032 101.12768 11381 ft 313 kts 241°
2026-05-07 14:45 14.15031 101.10814 10990 ft 311 kts 241°
2026-05-07 14:46 14.14025 101.08848 10601 ft 309 kts 241°
2026-05-07 14:46 14.13026 101.06895 10203 ft 307 kts 241°
2026-05-07 14:46 14.12034 101.04958 10009 ft 304 kts 241°
2026-05-07 14:46 14.11048 101.03035 9881 ft 304 kts 241°
2026-05-07 14:47 14.10062 101.01109 9743 ft 304 kts 241°
2026-05-07 14:47 14.09070 100.99176 9258 ft 305 kts 241°
2026-05-07 14:47 14.08079 100.97245 8845 ft 302 kts 241°
2026-05-07 14:47 14.07095 100.95332 8362 ft 302 kts 241°
2026-05-07 14:48 14.06118 100.93432 8009 ft 298 kts 241°
2026-05-07 14:48 14.05150 100.91546 7579 ft 297 kts 241°
2026-05-07 14:48 14.04201 100.89699 7191 ft 294 kts 241°
2026-05-07 14:48 14.03269 100.87884 7085 ft 277 kts 241°
2026-05-07 14:49 14.02371 100.86217 6753 ft 257 kts 234°
2026-05-07 14:49 14.01157 100.84929 6343 ft 246 kts 214°
2026-05-07 14:49 13.99631 100.84126 5988 ft 246 kts 196°
2026-05-07 14:49 13.97980 100.83684 5529 ft 244 kts 194°
2026-05-07 14:50 13.96343 100.83256 5086 ft 242 kts 194°
2026-05-07 14:50 13.94712 100.82827 4658 ft 241 kts 193°
2026-05-07 14:50 13.93085 100.82399 4178 ft 241 kts 193°
2026-05-07 14:50 13.91467 100.81973 3774 ft 239 kts 194°
2026-05-07 14:51 13.89885 100.81556 3549 ft 228 kts 194°
2026-05-07 14:51 13.88398 100.81164 3494 ft 216 kts 194°
2026-05-07 14:51 13.86968 100.80787 3429 ft 205 kts 194°
2026-05-07 14:51 13.85645 100.80438 3284 ft 189 kts 194°
2026-05-07 14:52 13.84397 100.80109 2992 ft 180 kts 194°
2026-05-07 14:52 13.83608 100.79902 2831 ft 174 kts 194°
2026-05-07 14:52 13.82476 100.79604 2631 ft 161 kts 194°
2026-05-07 14:52 13.81427 100.79328 2417 ft 151 kts 194°
2026-05-07 14:53 13.80421 100.79063 2222 ft 147 kts 194°
2026-05-07 14:53 13.79438 100.78804 2040 ft 145 kts 194°
2026-05-07 14:53 13.78467 100.78549 1856 ft 142 kts 194°
2026-05-07 14:53 13.77511 100.78297 1677 ft 141 kts 194°
2026-05-07 14:54 13.76559 100.78047 1493 ft 141 kts 194°
2026-05-07 14:54 13.75608 100.77797 1308 ft 141 kts 194°
2026-05-07 14:54 13.74658 100.77547 1124 ft 140 kts 195°
2026-05-07 14:54 13.73713 100.77298 949 ft 141 kts 194°
2026-05-07 14:55 13.72776 100.77052 781 ft 142 kts 194°
2026-05-07 14:55 13.71822 100.76802 606 ft 141 kts 195°
2026-05-07 14:55 13.70872 100.76554 391 ft 140 kts 195°
2026-05-07 14:55 13.69928 100.76305 219 ft 141 kts 194°
2026-05-07 14:56 13.69007 100.76060 50 ft 132 kts 195°
2026-05-07 14:56 13.68185 100.75844 13 ft 102 kts 194°
2026-05-07 14:56 13.67680 100.75711 11 ft 36 kts 195°
2026-05-07 14:56 13.67553 100.75636 12 ft 9 kts 216°
2026-05-07 14:57 13.67530 100.75619 12 ft 0 kts 220°
2026-05-07 14:57 13.67523 100.75612 12 ft 2 kts 220°
2026-05-07 14:57 13.67505 100.75596 14 ft 5 kts 221°
2026-05-07 14:57 13.67476 100.75568 14 ft 7 kts 226°
2026-05-07 14:58 13.67457 100.75545 13 ft 0 kts 237°
2026-05-07 14:58 13.67450 100.75505 13 ft 11 kts 278°
2026-05-07 14:59 13.67508 100.75478 13 ft 9 kts 10°
2026-05-07 14:59 13.67522 100.75480 13 ft 0 kts 11°
2026-05-07 15:00 13.67539 100.75484 13 ft 5 kts 11°
2026-05-07 15:00 13.67586 100.75495 13 ft 9 kts 13°
2026-05-07 15:00 13.67655 100.75514 13 ft 8 kts 16°
2026-05-07 15:00 13.67705 100.75528 13 ft 7 kts 16°
2026-05-07 15:01 13.67750 100.75532 13 ft 7 kts 347°
2026-05-07 15:01 13.67772 100.75500 13 ft 6 kts 275°
2026-05-07 15:01 13.67777 100.75462 13 ft 5 kts 280°
2026-05-07 15:01 13.67781 100.75440 13 ft 0 kts 282°
2026-05-07 15:02 13.67812 100.75421 13 ft 10 kts 343°
2026-05-07 15:02 13.67837 100.75441 13 ft 3 kts 110°
2026-05-07 15:02 13.67796 100.75460 14 ft 9 kts 175°
2026-05-07 15:03 13.67785 100.75435 15 ft 5 kts 274°
2026-05-07 15:03 13.67797 100.75374 13 ft 13 kts 285°
2026-05-07 15:03 13.67821 100.75282 13 ft 13 kts 285°
2026-05-07 15:03 13.67842 100.75194 13 ft 12 kts 283°
2026-05-07 15:04 13.67863 100.75111 13 ft 12 kts 285°
2026-05-07 15:04 13.67888 100.75010 13 ft 16 kts 287°
2026-05-07 15:04 13.67967 100.74970 13 ft 0 kts
2026-05-07 15:05 13.67994 100.74958 13 ft 17 kts 339°
2026-05-07 15:05 13.68094 100.74971 13 ft 0 kts 14°